TimeEST,TemperatureF,Dew PointF,Humidity,Sea Level PressureIn,VisibilityMPH,Wind Direction,Wind SpeedMPH,Gust SpeedMPH,PrecipitationIn,Events,Conditions,WindDirDegrees,DateUTC
12:15 AM,21.2,12.2,68,30.00,10.0,SW,4.6,-,N/A,,Clear,230,2013-01-04 05:15:00
12:35 AM,23.0,12.2,63,30.00,10.0,SW,5.8,-,N/A,,Clear,230,2013-01-04 05:35:00
12:55 AM,23.0,12.2,63,29.99,10.0,SW,5.8,-,N/A,,Clear,230,2013-01-04 05:55:00
1:15 AM,23.0,12.2,63,29.99,10.0,WSW,4.6,-,N/A,,Clear,240,2013-01-04 06:15:00
1:35 AM,23.0,14.0,68,29.99,10.0,SW,4.6,-,N/A,,Clear,230,2013-01-04 06:35:00
1:55 AM,23.0,14.0,68,29.99,10.0,SW,5.8,-,N/A,,Clear,230,2013-01-04 06:55:00
2:15 AM,23.0,14.0,68,29.99,10.0,SW,4.6,-,N/A,,Clear,230,2013-01-04 07:15:00
2:35 AM,23.0,14.0,68,29.99,10.0,WSW,4.6,-,N/A,,Clear,240,2013-01-04 07:35:00
2:55 AM,23.0,14.0,68,29.98,10.0,SW,5.8,-,N/A,,Clear,230,2013-01-04 07:55:00
3:15 AM,24.8,14.0,64,29.98,10.0,SW,6.9,-,N/A,,Clear,230,2013-01-04 08:15:00
3:35 AM,24.8,14.0,64,29.98,10.0,SW,5.8,-,N/A,,Clear,230,2013-01-04 08:35:00
3:55 AM,24.8,15.8,69,29.97,10.0,SW,4.6,-,N/A,,Clear,230,2013-01-04 08:55:00
6:35 AM,26.6,17.6,69,29.98,10.0,SW,6.9,-,N/A,,Clear,230,2013-01-04 11:35:00
6:55 AM,26.6,17.6,69,29.98,10.0,SW,5.8,-,N/A,,Clear,230,2013-01-04 11:55:00
7:15 AM,26.6,19.4,74,29.98,10.0,SW,6.9,-,N/A,,Clear,220,2013-01-04 12:15:00
7:35 AM,26.6,19.4,74,29.99,10.0,SW,8.1,-,N/A,,Clear,230,2013-01-04 12:35:00
7:55 AM,26.6,19.4,74,29.99,10.0,WSW,6.9,-,N/A,,Clear,240,2013-01-04 12:55:00
8:35 AM,30.2,19.4,64,29.99,10.0,WSW,9.2,-,N/A,,Clear,240,2013-01-04 13:35:00
8:55 AM,30.2,21.2,69,29.99,10.0,WSW,9.2,-,N/A,,Clear,240,2013-01-04 13:55:00
9:15 AM,32.0,21.2,64,29.98,10.0,WSW,9.2,16.1,N/A,,Clear,240,2013-01-04 14:15:00
9:35 AM,32.0,21.2,64,29.98,10.0,WSW,8.1,17.3,N/A,,Clear,250,2013-01-04 14:35:00
9:55 AM,33.8,21.2,60,29.98,10.0,WSW,9.2,16.1,N/A,,Clear,250,2013-01-04 14:55:00
10:15 AM,33.8,21.2,60,29.97,10.0,WSW,8.1,-,N/A,,Clear,240,2013-01-04 15:15:00
10:35 AM,35.6,21.2,56,29.95,10.0,SW,6.9,-,N/A,,Clear,220,2013-01-04 15:35:00
10:55 AM,35.6,21.2,56,29.94,10.0,WSW,10.4,16.1,N/A,,Clear,240,2013-01-04 15:55:00
11:15 AM,37.4,21.2,52,29.93,10.0,WSW,6.9,-,N/A,,Clear,240,2013-01-04 16:15:00
11:35 AM,37.4,21.2,52,29.91,10.0,WSW,9.2,-,N/A,,Clear,250,2013-01-04 16:35:00
11:55 AM,37.4,21.2,52,29.90,10.0,WSW,11.5,23.0,N/A,,Clear,250,2013-01-04 16:55:00
12:15 PM,39.2,21.2,49,29.88,10.0,SW,9.2,16.1,N/A,,Clear,230,2013-01-04 17:15:00
12:35 PM,39.2,21.2,49,29.87,10.0,SW,11.5,23.0,N/A,,Clear,230,2013-01-04 17:35:00
12:55 PM,39.2,19.4,45,29.85,10.0,SW,9.2,24.2,N/A,,Clear,230,2013-01-04 17:55:00
1:15 PM,39.2,19.4,45,29.85,10.0,WSW,13.8,18.4,N/A,,Clear,240,2013-01-04 18:15:00
1:35 PM,39.2,21.2,49,29.83,10.0,South,11.5,20.7,N/A,,Clear,190,2013-01-04 18:35:00
1:55 PM,37.4,21.2,52,29.84,10.0,SW,10.4,24.2,N/A,,Clear,230,2013-01-04 18:55:00
2:15 PM,37.4,21.2,52,29.84,10.0,SSW,9.2,-,N/A,,Partly Cloudy,210,2013-01-04 19:15:00
2:35 PM,37.4,23.0,56,29.84,10.0,SSW,6.9,-,N/A,,Clear,210,2013-01-04 19:35:00
2:55 PM,37.4,23.0,56,29.84,10.0,SSW,10.4,16.1,N/A,,Clear,210,2013-01-04 19:55:00
3:15 PM,37.4,23.0,56,29.84,10.0,WSW,8.1,16.1,N/A,,Clear,240,2013-01-04 20:15:00
3:35 PM,37.4,23.0,56,29.84,10.0,SW,9.2,-,N/A,,Partly Cloudy,220,2013-01-04 20:35:00
3:55 PM,37.4,23.0,56,29.84,10.0,SSW,10.4,16.1,N/A,,Scattered Clouds,210,2013-01-04 20:55:00
4:15 PM,37.4,23.0,56,29.84,10.0,SW,6.9,-,N/A,,Overcast,220,2013-01-04 21:15:00
4:35 PM,37.4,23.0,56,29.85,10.0,SW,5.8,-,N/A,,Overcast,230,2013-01-04 21:35:00
4:55 PM,37.4,23.0,56,29.85,10.0,SSW,3.5,-,N/A,,Mostly Cloudy,210,2013-01-04 21:55:00
5:15 PM,35.6,24.8,65,29.85,10.0,SSW,3.5,-,N/A,,Partly Cloudy,210,2013-01-04 22:15:00
5:35 PM,35.6,23.0,60,29.85,10.0,SW,6.9,-,N/A,,Clear,220,2013-01-04 22:35:00
5:55 PM,35.6,24.8,65,29.86,10.0,SW,5.8,-,N/A,,Clear,220,2013-01-04 22:55:00
6:15 PM,35.6,24.8,65,29.86,10.0,SSW,4.6,-,N/A,,Clear,210,2013-01-04 23:15:00
6:35 PM,35.6,24.8,65,29.86,10.0,SSW,8.1,-,N/A,,Clear,210,2013-01-04 23:35:00
6:55 PM,35.6,24.8,65,29.86,10.0,SW,4.6,-,N/A,,Clear,220,2013-01-04 23:55:00
7:15 PM,35.6,24.8,65,29.87,10.0,SSW,6.9,-,N/A,,Clear,210,2013-01-05 00:15:00
7:35 PM,35.6,24.8,65,29.87,10.0,SSW,5.8,-,N/A,,Clear,200,2013-01-05 00:35:00
7:55 PM,33.8,24.8,70,29.87,10.0,SSW,5.8,-,N/A,,Clear,210,2013-01-05 00:55:00
8:15 PM,33.8,24.8,70,29.87,10.0,SW,5.8,-,N/A,,Clear,220,2013-01-05 01:15:00
8:35 PM,33.8,24.8,70,29.87,10.0,SW,5.8,-,N/A,,Clear,220,2013-01-05 01:35:00
8:55 PM,33.8,24.8,70,29.87,10.0,SW,4.6,-,N/A,,Clear,220,2013-01-05 01:55:00
9:15 PM,33.8,23.0,65,29.87,10.0,SW,5.8,-,N/A,,Clear,220,2013-01-05 02:15:00
9:35 PM,33.8,23.0,65,29.88,10.0,SW,5.8,-,N/A,,Clear,230,2013-01-05 02:35:00
9:55 PM,33.8,23.0,65,29.88,10.0,WSW,6.9,-,N/A,,Clear,240,2013-01-05 02:55:00
10:15 PM,33.8,23.0,65,29.88,10.0,WSW,4.6,-,N/A,,Clear,250,2013-01-05 03:15:00
10:35 PM,32.0,23.0,69,29.89,10.0,WSW,3.5,-,N/A,,Clear,240,2013-01-05 03:35:00
10:55 PM,32.0,23.0,69,29.88,10.0,SW,3.5,-,N/A,,Clear,230,2013-01-05 03:55:00
11:15 PM,32.0,23.0,69,29.88,10.0,WSW,3.5,-,N/A,,Clear,240,2013-01-05 04:15:00
11:35 PM,32.0,23.0,69,29.88,10.0,WSW,3.5,-,N/A,,Partly Cloudy,240,2013-01-05 04:35:00
11:55 PM,32.0,23.0,69,29.88,10.0,SW,3.5,-,N/A,,Partly Cloudy,230,2013-01-05 04:55:00